KBTVKRUT

Guest
Details From KBTV - Burlington Intl
To KRUT - Rutland State
Flight Number -
Tags Routegen
Created
Modified
Stats Distance 58 nm / 108 km
Max Altitude 0 ft / 0 m
Waypoints 2
Social Downloads 6
Likes 0
Share

Download

Looking for another format? Having issues loading an existing format? Contact us
Advertisement - Login to hide

Notes

None

Route

KBTV KRUT

ID Type Via Altitude (ft/m) Position (lat/lon) Dist (leg/tot) Name
O KBTV APT - 0 / 0 44.48068 / -73.16588 - / 0 nm
O KRUT APT - 0 / 0 43.52488 / -72.94948 58 / 58 nm

Altitude Profile

Advertisement - Login to hide

KBTV

Details ICAO KBTV (BTV)
Name BURLINGTON INTL
Region United States
Timezone America/New_York (UTC-4.0)
Stats Elevation 335 ft / 102 m (AMSL)
Location 44.471300° -73.153000°
Runways 2
Magnetic Variation 14.096° W

METAR

KBTV 121654Z 34012G18KT 10SM SCT050 BKN100 16/01 A3011 RMK AO2 SLP197 T01610006

Decode

TAF

KBTV 121139Z 1212/1312 32005KT P6SM BKN035 FM121600 32008G16KT P6SM SCT060 FM122000 31012G20KT P6SM VCSH BKN045 FM122300 31005KT P6SM SCT070

Decode

Departure Runways

ID Width Length Bearing (true/mag) Surface Threshold Overrun Markings Lighting
01 75 ft / 23 m 4,115 ft / 1,254 m 351.48° / 5.57° ASPHALT 226 ft / 69 m 0 ft / 0 m APP EDGE THRESHOLD
15 151 ft / 46 m 8,329 ft / 2,539 m 130.94° / 145.03° ASPHALT 0 ft / 0 m 495 ft / 151 m APP CENTERLINE EDGE THRESHOLD MALSR
19 75 ft / 23 m 4,115 ft / 1,254 m 171.47° / 185.57° ASPHALT 495 ft / 151 m 0 ft / 0 m APP EDGE THRESHOLD
33 151 ft / 46 m 8,329 ft / 2,539 m 310.95° / 325.05° ASPHALT 518 ft / 158 m 499 ft / 152 m APP CENTERLINE EDGE THRESHOLD MALSR

KRUT

Details ICAO KRUT (RUT)
Name RUTLAND STATE
Region United States
Timezone America/New_York (UTC-4.0)
Stats Elevation 787 ft / 240 m (AMSL)
Location 43.529400° -72.949600°
Runways 2
Magnetic Variation 13.945° W

METAR

KRUT 121735Z AUTO 35005KT 10SM BKN055 OVC070 11/04 A3012 RMK AO2 WSHFT 1710 $

Decode

TAF

KRUT 121139Z 1212/1312 31005KT P6SM BKN022 TEMPO 1212/1214 BKN012 FM121430 31007KT P6SM SCT040 FM121700 32009G18KT P6SM SCT060 FM122300 VRB04KT P6SM SCT080

Decode

Destination Runways

ID Width Length Bearing (true/mag) Surface Threshold Overrun Markings Lighting
01 98 ft / 30 m 5,008 ft / 1,526 m 358.50° / 12.45° ASPHALT 0 ft / 0 m 0 ft / 0 m APP EDGE THRESHOLD
13 75 ft / 23 m 3,172 ft / 967 m 118.72° / 132.66° ASPHALT 0 ft / 0 m 0 ft / 0 m APP EDGE THRESHOLD REIL-OMNI
19 98 ft / 30 m 5,008 ft / 1,526 m 178.50° / 192.45° ASPHALT 0 ft / 0 m 0 ft / 0 m APP EDGE THRESHOLD MALSR REIL-UNI
31 75 ft / 23 m 3,172 ft / 967 m 298.72° / 312.67° ASPHALT 0 ft / 0 m 0 ft / 0 m APP EDGE THRESHOLD

Approach Navaids

Runway Type Ident Frequency Range Bearing (true/mag) Slope Elevation
19 DME IRUT 111.70 MHz 18 nm / 33 km - - 787 ft / 240 m (AMSL)
19 LOC-ILS IRUT 111.70 MHz 18 nm / 33 km 178.50° / 192.44 ° - 787 ft / 240 m (AMSL)
19 GS IRUT 111.70 MHz 10 nm / 19 km 178.50° / 192.44 ° 3.20° 787 ft / 240 m (AMSL)

Popular Alternatives